DW1970 Weather Reports


Display with metric or nautical units.
time (UTC)temp
F
wind
direction
speed
MPH
gust
MPH
rain 1hr
in
rain 24hr
in
rain mn
in
humidity
%
barometer
mb
20260506024519 55 352 0.0 0.0 0.00 0.02 0.00 94 1016.4
20260506023007 55 330 0.0 5.0 0.00 0.02 0.00 94 1016.3
20260506021505 55 346 0.0 0.0 0.00 0.02 0.00 94 1016.3
20260506020005 55 298 0.0 3.0 0.00 0.02 0.00 93 1016.3
20260506014503 55 312 0.0 8.0 0.00 0.02 0.00 93 1016.3
20260506013004 56 293 1.0 10.0 0.00 0.02 0.00 92 1016.3
20260506011504 56 303 0.0 12.0 0.00 0.02 0.00 92 1016.1
20260506010005 56 358 0.0 8.0 0.00 0.02 0.00 91 1016.2
20260506004505 56 321 0.0 10.0 0.00 0.05 0.00 91 1016.2
20260506003002 57 342 0.0 9.0 0.00 0.05 0.00 91 1016.3
20260506001502 57 327 0.0 10.0 0.00 0.05 0.00 90 1016.2
20260506000001 57 343 1.0 9.0 0.00 0.05 0.00 90 1016.1
20260505234602 57 17 5.0 12.0 0.00 0.08 0.00 90 1016.1
20260505233129 58 328 1.0 11.0 0.00 0.08 0.00 89 1016.1
20260505231600 57 360 1.0 12.0 0.00 0.08 0.00 88 1016.2
20260505230059 58 6 5.0 14.0 0.00 0.08 0.00 87 1016.3
20260505224557 59 341 3.0 12.0 0.00 0.10 0.00 87 1016.2
20260505223056 59 6 5.0 13.0 0.00 0.10 0.00 88 1016.4
20260505221602 59 335 0.0 10.0 0.00 0.10 0.00 89 1016.6
20260505220055 58 318 2.0 11.0 0.00 0.10 0.00 89 1016.5
20260505214554 58 333 3.0 11.0 0.00 0.10 0.00 88 1016.6
20260505213057 59 10 1.0 11.0 0.00 0.10 0.00 88 1016.6
20260505211553 59 13 0.0 6.0 0.00 0.10 0.00 89 1016.8
20260505210051 59 330 0.0 6.0 0.00 0.10 0.00 90 1016.7
20260505204550 59 346 0.0 9.0 0.00 0.10 0.00 92 1016.7
20260505203052 59 358 7.0 11.0 0.00 0.10 0.00 91 1016.7
20260505201550 58 348 0.0 10.0 0.00 0.10 0.00 93 1016.6
20260505200047 58 334 0.0 3.0 0.00 0.10 0.00 93 1016.7
20260505194549 58 2 0.0 2.0 0.00 0.10 0.00 95 1016.7
20260505193101 57 313 0.0 0.0 0.00 0.10 0.00 95 1016.7
20260505191542 56 350 0.0 2.0 0.00 0.10 0.00 96 1016.7
20260505190041 56 319 0.0 0.0 0.00 0.10 0.00 96 1016.8
20260505184536 55 331 0.0 2.0 0.00 0.11 0.00 96 1016.5
20260505183035 55 326 0.0 0.0 0.00 0.11 0.00 96 1016.6
20260505181535 55 328 0.0 6.0 0.00 0.11 0.00 96 1016.5
20260505180135 55 309 0.0 2.0 0.00 0.11 0.00 96 1016.3
20260505174531 55 339 0.0 0.0 0.00 0.11 0.00 97 1016.3
20260505173029 54 345 0.0 0.0 0.00 0.11 0.00 96 1016.1
20260505171529 54 323 0.0 0.0 0.00 0.11 0.00 96 1016.0
20260505170028 55 334 0.0 0.0 0.00 0.11 0.00 97 1016.1
20260505164526 54 329 0.0 0.0 0.00 0.11 0.00 97 1016.0
20260505163031 54 10 0.0 5.0 0.00 0.11 0.00 97 1015.9
20260505161524 54 3 0.0 9.0 0.00 0.11 0.00 96 1015.7
20260505153024 53 357 0.0 0.0 0.00 0.11 0.00 97 1015.5
20260505151520 53 13 0.0 0.0 0.00 0.11 0.00 97 1015.4
20260505124512 52 358 0.0 0.0 0.00 0.11 0.00 96 1014.7
20260505123015 53 2 0.0 0.0 0.00 0.11 0.00 96 1014.6
20260505121512 53 2 0.0 0.0 0.00 0.11 0.00 96 1014.6
20260505120024 53 334 0.0 1.0 0.00 0.11 0.00 96 1014.6
20260505114511 52 360 0.0 0.0 0.00 0.11 0.00 96 1014.7
20260505113013 52 359 0.0 0.0 0.00 0.11 0.00 96 1014.7
20260505111522 52 360 0.0 0.0 0.00 0.11 0.00 96 1014.8
20260505101507 52 16 0.0 0.0 0.00 0.11 0.00 96 1015.0
20260505100007 52 356 0.0 0.0 0.00 0.11 0.00 96 1014.7
20260505094506 52 6 0.0 6.0 0.00 0.11 0.00 96 1014.6
20260505093004 52 341 0.0 4.0 0.00 0.11 0.00 96 1014.8
20260505091502 52 1 0.0 0.0 0.00 0.11 0.00 96 1015.2
20260505090001 52 14 0.0 1.0 0.00 0.11 0.00 96 1015.3
20260505084615 52 18 0.0 4.0 0.00 0.11 0.00 96 1015.4
20260505083111 52 360 0.0 0.0 0.00 0.11 0.00 96 1015.4
20260505081604 52 6 0.0 0.0 0.00 0.11 0.00 96 1015.5
20260505080105 52 11 0.0 0.0 0.00 0.11 0.00 96 1015.7
20260505074558 52 351 0.0 0.0 0.00 0.11 0.00 96 1015.3
20260505073101 52 2 0.0 0.0 0.00 0.11 0.00 96 1015.6
20260505071612 52 354 0.0 0.0 0.01 0.11 0.00 96 1015.6
20260505070054 52 346 0.0 0.0 0.01 0.11 0.00 96 1015.8
20260505064551 52 339 0.0 7.0 0.01 0.11 0.11 96 1016.0
20260505063053 52 23 0.0 10.0 0.01 0.11 0.11 96 1016.2
20260505061555 52 6 0.0 1.0 0.00 0.10 0.10 96 1015.8
20260505060059 52 8 0.0 1.0 0.00 0.10 0.10 96 1015.6
20260505054552 52 325 0.0 0.0 0.00 0.10 0.10 96 1015.7
20260505053048 53 335 0.0 0.0 0.00 0.10 0.10 96 1016.0
20260505051549 53 336 0.0 0.0 0.00 0.10 0.10 96 1016.3
20260505041554 53 2 0.0 0.0 0.00 0.10 0.10 96 1016.2
20260505040049 53 35 0.0 0.0 0.00 0.10 0.10 96 1015.8
20260505034544 53 2 0.0 1.0 0.00 0.10 0.10 96 1015.4
20260505033044 53 356 0.0 0.0 0.00 0.10 0.10 96 1015.0
20260505031543 53 347 0.0 0.0 0.00 0.10 0.10 96 1014.8
20260505030056 53 348 0.0 0.0 0.01 0.10 0.10 96 1015.2